COSMOS 1089

Satellite information

Favourite Embed

Satellite Type and Status

PAYLOADIN ORBIT

Key statistics

Satellite COSMOS 1089 at a glance.

Uptime

16854

Days in orbit

Revolutions

≈ 13.8

Per day

Orbit

LEO

Low Earth Orbit

Inclination

83.0

Latest

Satellite identification and parameters

Extended collection of information and parameters for COSMOS 1089.

Object identification

Identified? True

Debris? False

Object name: COSMOS 1089

International designator: 1979-026A

Object number (NORAD): 11308

Object ID (CCSDS): 11308

Country: COMMONWEALTH OF INDEPENDENT STATES (CIS)

Current information (Y/N): Y

RCS size: LARGE

Orbital parameters

Period: 104.699 minutes

Inclination: 82.9735 deg

SMA: 7358.467 km

Apoapsis: 997.824 km

Periapsis: 962.839 km

RAAN: 91.2138 deg

Eccentricy: 0.0023772

Argument of periapsis: 59.7205 deg

Mean anomaly: 318.4516 deg

Mean motion: 13.75377047 rev/day

Mean motion (dot): 0.00000045 rev/day2

B* drag term: 0.000030401 1/REarth

Two-line elements (TLE)

Creation date: May 12, 2025, 2:31 a.m.

Reference frame: TEME

Reference center: EARTH

Epoch: May 11, 2025, 9:19 p.m. UTC

TLE line 0: 0 COSMOS 1089

TLE line 1: 1 11308U 79026A 25131.88867795 .00000045 00000-0 30401-4 0 9998

TLE line 2: 2 11308 82.9735 91.2138 0023772 59.7205 318.4516 13.75377047314226

Live tracking on map

Real-time ground track for satellite COSMOS 1089.

In-orbit conjunctions

There are no conjunctions computed for COSMOS 1089, at the moment. Check back to stay up to date, as we update our databases every day.

Go to all conjunctions

Associated space launch

Navigation satellite providing location information for the Tsiklon-B navigation system

COSMOS 1089 was lifted into orbit during the mission ‘Kosmos-3M | Parus 18’, on board a Kosmos-3M space rocket.

The launch took place on March 21, 1979, 4:13 a.m. from 132/2.

For more information about the launch, click the button.

Launch to space Kosmos-3M | Parus 18
Kosmos-3M | Parus 18

Agency: N/A

Status: Launch Successful

Launch date: March 21, 1979, 4:13 a.m. UTC

Rocket: Kosmos-3M

Launch pad: 132/2

Location: Plesetsk Cosmodrome, Russian Federation

...

Latest news about this satellite

There are no fresh news available about this satellite. Check back as we update our databases every day.


Newsletter sign-up

Weekly statistics, charts and insights to help you stay on top of the space industry.